Home   Weather   Rishon LeZion   Past weeks

Flag for Israel Past Weather in Rishon LeZion, Israel — Yesterday and Last 2 Weeks

Now
68 °F

Scattered clouds.


Feels Like: 68 °F
Forecast: 52 / 68 °F
Wind: 7 mph from Northwest

Location: Ben Gurion International Airport

Current Time: Dec 11, 2016 at 2:14:57 pm

Latest Report: Dec 11, 2016 at 1:20 pm


Visibility: N/A

Pressure: 30.15 "Hg

Humidity: 53%

Dew Point: 50 °F

Location of Rishon LeZionLocation

Past Weather in Rishon LeZion — Graph

°F

Rishon LeZion Temperature Yesterday

Maximum temperature yesterday: 64 °F (at 10:20 am)
Minimum temperature yesterday: 43 °F (at 6:50 am)
Average temperature yesterday: 56 °F

High & Low Weather Summary for the Past Weeks

 TemperatureHumidityPressure
High77 °F (Nov 28, 12:50 pm)94% (Dec 2, 12:20 am)30.33 "Hg (Dec 2, 12:20 am)
Low43 °F (Nov 27, 6:20 am)4% (Nov 26, 12:20 pm)29.74 "Hg (Dec 1, 1:50 pm)
Average61 °F58%30.10 "Hg
* Reported Nov 26 12:20 pm — Dec 11 12:50 pm, Rishon LeZion, Weather by CustomWeather, © 2016

Note: Actual official high and low records may vary slightly from our data, if they occured in-between our weather recording intervals... More about our weather records

Advertising

Rishon LeZion Weather History for the Previous 24 Hours

Scroll right to see more
 ConditionsComfort  
Time TempWeatherWind HumidityBarometerVisibility
12:50 pm
Sun, Dec 11
68 °FScattered clouds.7 mph53%30.15 "HgN/A
12:20 pm66 °FScattered clouds.6 mph52%30.15 "HgN/A
11:50 am66 °FPassing clouds.2 mph56%30.18 "HgN/A
11:20 am66 °FPassing clouds.3 mph52%30.18 "HgN/A
10:50 am64 °FPassing clouds.6 mph52%30.21 "HgN/A
10:20 am63 °FPassing clouds.6 mph56%30.21 "HgN/A
9:50 am61 °FScattered clouds.7 mph55%30.21 "HgN/A
9:20 am61 °FScattered clouds.7 mph52%30.21 "HgN/A
8:50 am59 °FScattered clouds.6 mph55%30.21 "HgN/A
8:20 am57 °FScattered clouds.3 mph63%30.21 "HgN/A
7:50 am57 °FScattered clouds.3 mph63%30.21 "HgN/A
7:20 am57 °FScattered clouds.6 mph63%30.18 "HgN/A
6:50 am57 °FScattered clouds.5 mph63%30.18 "HgN/A
6:20 am57 °FPassing clouds.5 mph63%30.18 "HgN/A
5:50 am57 °FPassing clouds.6 mph63%30.18 "HgN/A
5:20 am57 °FPassing clouds.3 mph63%30.15 "HgN/A
4:50 am57 °FPassing clouds.2 mph63%30.15 "HgN/A
4:20 am55 °FPassing clouds.5 mph72%30.15 "HgN/A
3:50 am55 °FPassing clouds.5 mph72%30.15 "HgN/A
3:20 am55 °FPassing clouds.6 mph72%30.15 "HgN/A
2:50 am55 °FPassing clouds.6 mph72%30.18 "HgN/A
2:20 am55 °FPassing clouds.5 mph72%30.18 "HgN/A
1:50 am55 °FPassing clouds.5 mph72%30.18 "HgN/A
1:20 am55 °FPassing clouds.6 mph72%30.18 "HgN/A
12:50 am55 °FPassing clouds.5 mph72%30.18 "HgN/A
12:20 am57 °FPassing clouds.5 mph67%30.18 "HgN/A
11:50 pm
Sat, Dec 10
57 °FPassing clouds.7 mph72%30.18 "HgN/A
11:20 pm57 °FPassing clouds.5 mph72%30.18 "HgN/A
10:50 pm59 °FPassing clouds.6 mph68%30.18 "HgN/A
10:20 pm59 °FPassing clouds.6 mph68%30.18 "HgN/A
9:50 pm59 °FPassing clouds.7 mph68%30.18 "HgN/A
9:20 pm59 °FPassing clouds.6 mph68%30.18 "HgN/A
8:50 pm59 °FPassing clouds.6 mph68%30.18 "HgN/A
8:20 pm59 °FPassing clouds.6 mph68%30.18 "HgN/A
7:50 pm59 °FPassing clouds.5 mph68%30.18 "HgN/A
7:20 pm59 °FPassing clouds.1 mph59%30.18 "HgN/A
6:50 pm61 °FPassing clouds.5 mph52%30.18 "HgN/A
6:20 pm61 °FPassing clouds.2 mph63%30.18 "HgN/A
5:50 pm61 °FPassing clouds.5 mph68%30.18 "HgN/A
5:20 pm61 °FPassing clouds.6 mph68%30.15 "HgN/A
4:50 pm61 °FPassing clouds.5 mph68%30.15 "HgN/A
4:20 pm63 °FScattered clouds.6 mph64%30.15 "HgN/A
3:50 pm63 °FScattered clouds.9 mph59%30.15 "HgN/A
3:20 pm64 °FScattered clouds.8 mph56%30.15 "HgN/A
2:50 pm64 °FPassing clouds.8 mph56%30.15 "HgN/A
2:20 pm64 °FPassing clouds.9 mph49%30.15 "HgN/A
Weather by CustomWeather, © 2016

See weather overviewHow to use our weather pages